User: anonymous
Location: Castro Valley
(37.6940°N, 122.0850°W)
Time: 16:28:56
(UTC-07:00)
Language:

PANSAT - Orbit

View from above orbital plane
View from above orbital plane
View from above satellite
View from above satellite

Ground track
Ground track

The orbit data is extracted from the following two-line orbital elements,

1 25520U 98064B   14259.47447355  .00003614  00000-0  13678-3 0  5696
2 25520 028.4595 332.1427 0004637 039.1659 079.8131 15.23943076880571
Epoch (UTC): 16 September 2014 11:23:14
Eccentricity: 0.0004637
inclination: 28.4595°
perigee height: 491 km
apogee height: 497 km
right ascension of ascending node: 332.1427°
argument of perigee: 39.1659°
revolutions per day: 15.23943076
mean anomaly at epoch: 79.8131°
orbit number at epoch: 88057

The dashed part of the orbit path shows where the satellite is in the earth's shadow,  

DLR